1488171600.57,57871,9.13,73214.8,-5.91,-10.35,-10.09,0,*5E
1488171601.79,57872,9.06,73210.0,-5.91,-10.35,-10.19,0,*5C
1488171603.01,57873,9.06,73208.0,-5.91,-10.35,-10.09,0,*5C
1488171604.21,57874,9.06,73208.5,-5.91,-10.49,-10.23,0,*58
1488171605.46,57875,9.06,73208.3,-5.91,-10.63,-10.27,0,*55
1488171606.67,57876,9.06,73216.8,-5.91,-10.49,-10.27,0,*5E
1488171607.92,57877,9.06,73216.8,-5.91,-10.63,-10.35,0,*54
1488171609.21,57878,9.06,73222.8,-5.93,-10.67,-10.41,0,*5E
1488171610.48,57879,9.06,73226.0,-5.93,-10.71,-10.45,0,*5C
1488171611.72,57880,9.06,73224.8,-5.91,-10.75,-10.49,0,*50
1488171612.99,57881,9.13,73226.3,-5.91,-10.67,-10.41,0,*5A
1488171614.25,57882,9.06,73226.5,-5.93,-10.71,-10.45,0,*58
1488171615.52,57883,9.06,73226.5,-5.93,-10.71,-10.45,0,*59
1488171616.78,57884,9.06,73228.0,-5.93,-10.71,-10.45,0,*5E
1488171618.05,57885,9.06,73232.3,-5.93,-10.71,-10.45,0,*5F
1488171619.31,57886,9.06,73234.5,-5.93,-10.79,-10.57,0,*57
1488171620.57,57887,9.06,73240.5,-5.93,-10.79,-10.57,0,*56
1488171621.84,57888,9.06,73246.8,-5.93,-10.79,-10.53,0,*5D
1488171623.1,57889,9.06,73240.0,-5.93,-10.41,-10.15,0,*55
1488171624.33,57890,9.06,73238.8,-5.93,-10.23,-9.97,0,*6B
1488171625.55,57891,9.06,73238.0,-5.91,-9.93,-9.57,0,*57
1488171626.79,57892,9.06,73236.8,-5.93,-9.97,-9.57,0,*52
1488171627.98,57893,9.06,73230.8,-5.91,-9.93,-9.67,0,*56
1488171629.18,57894,9.06,73228.0,-5.91,-9.97,-9.67,0,*55
1488171630.38,57895,9.06,73226.5,-5.91,-9.97,-9.71,0,*53
1488171631.59,57896,9.06,73234.3,-5.91,-9.97,-9.61,0,*51
1488171632.82,57897,9.06,73232.3,-5.91,-9.71,-9.45,0,*5E
1488171634.06,57898,9.06,73226.8,-5.89,-9.61,-9.23,0,*59
1488171635.29,57899,9.06,73220.0,-5.87,-9.37,-9.05,0,*51
1488171636.51,57900,9.06,73218.0,-5.89,-9.31,-9.05,0,*58
1488171637.71,57901,9.06,73220.3,-5.87,-9.23,-8.93,0,*5A
1488171638.91,57902,9.06,73218.8,-5.87,-9.23,-8.85,0,*5E
1488171640.11,57903,9.06,73220.5,-5.87,-9.31,-8.93,0,*5B
1488171641.34,57904,9.06,73222.5,-5.87,-9.41,-9.05,0,*55
1488171642.6,57905,9.06,73218.3,-5.85,-9.57,-9.15,0,*50
1488171643.85,57906,9.06,73212.8,-5.87,-9.53,-9.37,0,*55
1488171645.09,57907,9.06,73212.3,-5.85,-9.37,-9.05,0,*55
1488171646.32,57908,9.06,73206.5,-5.83,-9.37,-9.05,0,*5C
1488171647.53,57909,9.06,73200.3,-5.83,-9.49,-9.05,0,*54
1488171648.75,57910,9.06,73208.3,-5.83,-9.49,-9.19,0,*51
1488171649.97,57911,9.06,73210.0,-5.83,-9.49,-9.05,0,*5D
1488171651.21,57912,9.06,73208.5,-5.83,-9.49,-9.15,0,*5F
1488171652.43,57913,9.06,73208.0,-5.83,-9.49,-9.19,0,*52
1488171653.67,57914,9.06,73208.5,-5.79,-9.41,-9.15,0,*54
1488171654.92,57915,9.13,73210.3,-5.79,-9.45,-9.11,0,*55
1488171656.18,57916,9.06,73212.3,-5.77,-9.57,-9.15,0,*5F
1488171657.45,57917,9.06,73216.3,-5.77,-9.53,-9.11,0,*5E
1488171658.73,57918,9.06,73216.5,-5.77,-9.41,-9.11,0,*52
1488171659.97,57919,9.06,73208.5,-5.79,-9.57,-9.15,0,*5E
1488171661.22,57920,9.06,73208.5,-5.77,-9.71,-9.41,0,*5F
1488171662.46,57921,9.06,73218.8,-5.77,-9.83,-9.67,0,*57
1488171663.65,57922,9.06,73220.3,-5.75,-9.93,-9.79,0,*58
1488171664.87,57923,9.06,73218.8,-5.77,-10.05,-9.89,0,*63
1488171666.1,57924,9.13,73226.5,-5.77,-10.15,-9.93,0,*6E
1488171667.34,57925,9.06,73226.3,-5.77,-10.35,-10.05,0,*5A
1488171668.58,57926,9.06,73224.0,-5.77,-10.35,-10.09,0,*55
1488171669.82,57927,9.06,73234.3,-5.79,-10.41,-10.15,0,*54
1488171671.03,57928,9.06,73226.3,-5.79,-10.27,-10.05,0,*5A
1488171672.26,57929,9.06,73226.5,-5.77,-10.27,-10.05,0,*55
1488171673.46,57930,9.06,73222.0,-5.79,-10.27,-9.97,0,*60
1488171674.67,57931,9.06,73220.5,-5.79,-10.15,-9.97,0,*60
1488171675.89,57932,9.13,73224.0,-5.77,-10.09,-9.93,0,*64
1488171677.11,57933,9.06,73226.0,-5.79,-10.05,-9.83,0,*66
1488171678.32,57934,9.06,73224.5,-5.79,-10.15,-9.93,0,*61
1488171679.53,57935,9.06,73230.0,-5.79,-10.23,-9.93,0,*65
1488171680.76,57936,9.06,73228.5,-5.77,-10.27,-9.93,0,*6C
1488171681.97,57937,9.13,73234.0,-5.79,-10.35,-10.05,0,*57
1488171683.17,57938,9.06,73230.8,-5.79,-10.27,-9.97,0,*68
1488171684.4,57939,9.06,73228.0,-5.77,-10.27,-9.97,0,*67
1488171685.6,57940,9.06,73228.0,-5.79,-10.23,-9.97,0,*63
1488171686.83,57941,9.06,73228.0,-5.77,-10.23,-9.93,0,*68
1488171688.06,57942,9.06,73232.8,-5.77,-10.23,-9.93,0,*6B
1488171689.27,57943,9.06,73228.5,-5.79,-10.35,-10.09,0,*58
1488171690.49,57944,9.13,73234.5,-5.79,-10.49,-10.15,0,*59
1488171691.71,57945,9.06,73232.8,-5.77,-10.53,-10.23,0,*58
1488171692.92,57946,9.06,73234.0,-5.79,-10.53,-10.27,0,*51
1488171694.16,57947,9.06,73228.0,-5.79,-10.41,-10.09,0,*5F
1488171695.42,57948,9.06,73228.0,-5.77,-10.15,-9.83,0,*65
1488171696.63,57949,9.06,73230.3,-5.79,-9.93,-9.57,0,*55
1488171697.86,57950,9.13,73234.8,-5.79,-9.71,-9.45,0,*52
1488171699.11,57951,9.13,73230.3,-5.79,-9.45,-9.11,0,*55
1488171700.31,57952,9.13,73228.0,-5.79,-9.31,-8.97,0,*5A
1488171701.53,57953,9.06,73224.0,-5.79,-9.15,-8.75,0,*51
1488171702.76,57954,9.06,73220.8,-5.77,-9.01,-8.63,0,*5A
1488171703.97,57955,9.06,73222.8,-5.73,-8.97,-8.59,0,*58
1488171705.16,57956,9.06,73222.0,-5.75,-8.97,-8.55,0,*51
1488171706.35,57957,9.06,73222.8,-5.75,-8.97,-8.67,0,*51
1488171707.6,57958,9.06,73226.0,-5.73,-9.11,-8.71,0,*50
1488171708.83,57959,9.06,73228.3,-5.73,-9.19,-8.85,0,*52
1488171710.05,57960,9.06,73224.8,-5.73,-9.19,-8.85,0,*58
1488171711.28,57961,9.06,73220.3,-5.71,-9.19,-8.81,0,*5F
1488171712.48,57962,9.06,73220.8,-5.71,-9.19,-8.89,0,*54
1488171713.71,57963,9.06,73208.8,-5.69,-9.01,-8.71,0,*52
1488171714.95,57964,9.06,73210.3,-5.69,-9.11,-8.75,0,*50
1488171716.16,57965,9.06,73200.3,-5.71,-9.19,-8.89,0,*53
1488171717.38,57966,9.06,73188.3,-5.67,-9.45,-9.01,0,*5F
1488171718.62,57967,9.06,73184.8,-5.69,-9.57,-9.27,0,*57
1488171719.83,57968,9.06,73196.0,-5.69,-9.67,-9.31,0,*5C
1488171721.06,57969,9.13,73198.3,-5.67,-9.71,-9.45,0,*57
1488171722.28,57970,9.06,73202.3,-5.67,-9.71,-9.41,0,*5B
1488171723.5,57971,9.06,73204.8,-5.67,-9.71,-9.41,0,*5A
1488171724.76,57972,9.06,73214.5,-5.65,-9.83,-9.57,0,*51
1488171725.98,57973,9.06,73214.8,-5.67,-9.93,-9.57,0,*53
1488171727.21,57974,9.06,73212.3,-5.67,-9.83,-9.57,0,*55
1488171728.4,57975,9.06,73216.5,-5.67,-9.97,-9.79,0,*5D
1488171729.62,57976,9.06,73212.3,-5.67,-10.09,-9.83,0,*64
1488171730.84,57977,9.06,73210.3,-5.67,-10.01,-9.83,0,*6D
1488171732.04,57978,9.06,73216.3,-5.67,-10.09,-9.93,0,*6B
1488171733.24,57979,9.06,73226.3,-5.67,-10.15,-9.93,0,*67
1488171734.47,57980,9.13,73230.8,-5.69,-10.23,-9.97,0,*6E
1488171735.7,57981,9.06,73228.8,-5.69,-10.27,-10.09,0,*54
1488171736.94,57982,9.06,73226.8,-5.69,-10.35,-10.15,0,*59
1488171738.18,57983,9.06,73226.3,-5.69,-10.35,-10.09,0,*55
1488171739.41,57984,9.06,73228.8,-5.69,-10.27,-10.09,0,*51
1488171740.65,57985,9.06,73240.0,-5.69,-10.35,-10.09,0,*53
1488171741.88,57986,9.06,73236.8,-5.69,-10.23,-10.01,0,*5F
1488171743.11,57987,9.06,73236.5,-5.69,-10.23,-9.97,0,*69
1488171744.32,57988,9.13,73234.8,-5.71,-10.19,-9.89,0,*69
1488171745.54,57989,9.06,73234.0,-5.69,-10.01,-9.71,0,*6F
1488171746.76,57990,9.13,73234.3,-5.69,-9.97,-9.67,0,*57
1488171747.96,57991,9.06,73228.5,-5.71,-10.01,-9.75,0,*6B
1488171749.18,57992,9.06,73228.0,-5.69,-9.97,-9.79,0,*5A
1488171750.38,57993,9.13,73230.5,-5.71,-9.97,-9.79,0,*52
1488171751.64,57994,9.06,73222.3,-5.69,-10.15,-9.83,0,*6B
1488171752.88,57995,9.06,73226.5,-5.69,-10.09,-9.83,0,*67
1488171754.11,57996,9.06,73220.8,-5.69,-10.01,-9.71,0,*61
1488171755.32,57997,9.06,73220.8,-5.69,-9.97,-9.67,0,*50
1488171756.53,57998,9.06,73218.5,-5.71,-10.01,-9.71,0,*66
1488171757.75,57999,9.06,73224.0,-5.69,-9.97,-9.71,0,*59
1488171758.95,58000,9.06,73222.3,-5.71,-10.01,-9.75,0,*65
1488171760.2,58001,9.06,73218.3,-5.69,-9.79,-9.53,0,*5E
1488171761.47,58002,9.06,73214.5,-5.69,-9.83,-9.53,0,*58
1488171762.72,58003,9.06,73208.5,-5.69,-9.79,-9.45,0,*5B
1488171763.96,58004,9.06,73210.0,-5.69,-9.83,-9.67,0,*59
1488171765.18,58005,9.06,73212.5,-5.69,-9.93,-9.67,0,*59
1488171766.39,58006,9.06,73212.8,-5.69,-9.93,-9.67,0,*5A
1488171767.6,58007,9.06,73218.8,-5.71,-10.01,-9.71,0,*66
1488171768.82,58008,9.06,73224.8,-5.69,-10.09,-9.79,0,*60
1488171770.04,58009,9.06,73234.8,-5.69,-10.01,-9.79,0,*69
1488171771.29,58010,9.06,73234.8,-5.69,-9.79,-9.53,0,*5E
1488171772.51,58011,9.06,73220.0,-5.69,-9.67,-9.31,0,*54
1488171773.75,58012,9.06,73208.8,-5.69,-9.41,-9.19,0,*59
1488171774.97,58013,9.06,73222.3,-5.67,-9.45,-9.19,0,*52
1488171776.19,58014,9.06,73228.3,-5.67,-9.45,-9.19,0,*55
1488171777.43,58015,9.06,73230.5,-5.67,-9.41,-9.15,0,*5C
1488171778.68,58016,9.06,73226.5,-5.67,-9.45,-9.15,0,*5B
1488171779.91,58017,9.06,73222.0,-5.65,-9.57,-9.19,0,*57
1488171781.13,58018,9.06,73222.8,-5.65,-9.71,-9.31,0,*56
1488171782.36,58019,9.06,73216.8,-5.67,-9.71,-9.45,0,*56
1488171783.61,58020,9.06,73220.0,-5.65,-9.71,-9.53,0,*59
1488171784.87,58021,9.06,73222.3,-5.65,-9.83,-9.57,0,*51
1488171786.06,58022,9.06,73220.3,-5.67,-9.93,-9.79,0,*5D
1488171787.28,58023,9.06,73220.3,-5.65,-10.09,-9.79,0,*65
1488171788.52,58024,9.06,73216.0,-5.65,-10.09,-9.83,0,*67
1488171789.75,58025,9.06,73220.3,-5.65,-10.23,-9.93,0,*6F
1488171790.98,58026,9.06,73218.8,-5.65,-10.23,-9.97,0,*68
1488171792.19,58027,9.06,73218.3,-5.67,-10.23,-10.01,0,*5C
1488171793.39,58028,9.06,73222.0,-5.67,-10.27,-9.97,0,*60
1488171794.59,58029,9.06,73222.0,-5.67,-10.27,-9.97,0,*61
1488171795.79,58030,9.06,73224.0,-5.67,-10.27,-9.97,0,*69
1488171797.03,58031,9.13,73230.3,-5.65,-10.35,-10.09,0,*56
1488171798.24,58032,9.06,73230.0,-5.67,-10.35,-10.15,0,*5A
1488171799.47,58033,9.06,73228.0,-5.67,-10.41,-10.09,0,*55
1488171800.69,58034,9.06,73222.3,-5.69,-10.09,-9.97,0,*6F
1488171801.89,58035,9.06,73224.5,-5.67,-10.01,-9.79,0,*68
1488171803.13,58036,9.06,73228.5,-5.67,-9.83,-9.53,0,*51
1488171804.34,58037,9.06,73214.5,-5.67,-9.57,-9.27,0,*5A
1488171805.56,58038,9.06,73212.3,-5.67,-9.53,-9.19,0,*5C
1488171806.78,58039,9.06,73220.3,-5.67,-9.41,-9.19,0,*5E
1488171808.02,58040,9.06,73224.0,-5.65,-9.57,-9.27,0,*58
1488171809.25,58041,9.06,73220.8,-5.65,-9.57,-9.27,0,*59
1488171810.49,58042,9.06,73230.3,-5.65,-9.57,-9.27,0,*5A
1488171811.73,58043,9.13,73236.3,-5.65,-9.53,-9.19,0,*52
1488171812.98,58044,9.06,73234.8,-5.65,-9.45,-9.01,0,*5B
1488171814.18,58045,9.06,73224.3,-5.63,-9.23,-8.93,0,*56
1488171815.38,58046,9.06,73224.0,-5.63,-9.27,-8.85,0,*56
1488171816.58,58047,9.06,73222.3,-5.63,-9.23,-8.93,0,*54
1488171817.78,58048,9.06,73222.8,-5.63,-9.27,-8.93,0,*5F
1488171819.06,58049,9.06,73220.3,-5.61,-9.49,-9.11,0,*5F
1488171820.3,58050,9.06,73222.5,-5.61,-9.53,-9.23,0,*5D
1488171821.58,58051,9.06,73214.3,-5.61,-9.49,-9.11,0,*56
1488171822.84,58052,9.06,73216.0,-5.61,-9.53,-9.15,0,*5A
1488171824.04,58053,9.06,73224.8,-5.63,-9.67,-9.27,0,*5F
1488171825.32,58054,9.06,73224.5,-5.61,-9.41,-9.11,0,*5B
1488171826.55,58055,9.06,73210.0,-5.61,-9.27,-8.97,0,*55
1488171827.77,58056,9.06,73198.8,-5.61,-9.27,-8.93,0,*52
1488171829.0,58057,9.06,73198.8,-5.57,-9.31,-8.89,0,*5A
1488171830.2,58058,9.06,73202.8,-5.55,-9.27,-8.89,0,*50
1488171831.42,58059,9.06,73202.8,-5.57,-9.23,-8.93,0,*5C
1488171832.65,58060,9.06,73204.0,-5.57,-9.31,-8.93,0,*55
1488171833.87,58061,9.06,73198.3,-5.57,-9.19,-8.93,0,*5E
1488171835.07,58062,9.06,73198.3,-5.55,-9.05,-8.75,0,*5A
1488171836.27,58063,9.06,73210.0,-5.55,-9.01,-8.71,0,*5B
1488171837.46,58064,9.06,73218.0,-5.55,-8.97,-8.71,0,*52
1488171838.65,58065,9.06,73222.8,-5.55,-9.05,-8.71,0,*59
1488171839.88,58066,9.06,73214.5,-5.55,-9.15,-8.85,0,*50
1488171841.08,58067,9.06,73208.5,-5.55,-9.19,-8.85,0,*5D
1488171842.31,58068,9.13,73200.3,-5.53,-9.31,-9.01,0,*53
1488171843.59,58069,9.06,73188.5,-5.53,-9.45,-9.15,0,*54
1488171844.8,58070,9.06,73206.0,-5.51,-9.53,-9.23,0,*5C
1488171846.06,58071,9.06,73168.0,-5.53,-9.71,-9.45,0,*5F
1488171847.32,58072,9.06,73174.8,-5.53,-9.83,-9.57,0,*52
1488171848.55,58073,9.06,73210.5,-5.51,-9.79,-9.61,0,*51
1488171849.79,58074,9.06,73212.5,-5.53,-9.89,-9.61,0,*5B
1488171851.01,58075,9.06,73232.3,-5.53,-9.89,-9.67,0,*5C
1488171852.27,58076,9.06,73224.8,-5.53,-9.83,-9.57,0,*56
1488171853.52,58077,9.06,73218.3,-5.53,-9.67,-9.41,0,*5A
1488171854.74,58078,9.06,73214.0,-5.53,-9.67,-9.19,0,*58
1488171855.98,58079,9.06,73214.0,-5.53,-9.53,-9.19,0,*5E
1488171857.23,58080,9.06,73212.3,-5.51,-9.41,-9.15,0,*55
1488171858.51,58081,9.06,73204.3,-5.53,-9.45,-9.15,0,*52
1488171859.72,58082,9.06,73200.8,-5.51,-9.49,-9.23,0,*5A
1488171860.94,58083,9.06,73196.0,-5.51,-9.61,-9.23,0,*51
1488171862.19,58084,9.06,73192.3,-5.51,-9.41,-9.11,0,*55
1488171863.44,58085,9.13,73214.3,-5.49,-9.49,-9.23,0,*54
1488171864.7,58086,9.06,73212.0,-5.49,-9.53,-9.15,0,*59
1488171865.97,58087,9.06,73202.5,-5.49,-9.49,-9.15,0,*53
1488171867.21,58088,9.06,73192.3,-5.49,-9.53,-9.23,0,*52
1488171868.46,58089,9.06,73190.3,-5.49,-9.67,-9.37,0,*51
1488171869.71,58090,9.06,73194.5,-5.49,-9.79,-9.53,0,*54
1488171870.97,58091,9.06,73194.8,-5.49,-9.83,-9.61,0,*51
1488171872.19,58092,9.06,73202.0,-5.49,-9.97,-9.67,0,*51
1488171873.41,58093,9.06,73212.3,-5.49,-10.05,-9.79,0,*6C
1488171874.61,58094,9.06,73212.3,-5.51,-9.97,-9.67,0,*5E
1488171875.8,58095,9.06,73212.3,-5.51,-9.97,-9.67,0,*5F
1488171877.0,58096,9.06,73218.8,-5.51,-10.05,-9.75,0,*6C
1488171878.2,58097,9.06,73216.3,-5.51,-10.01,-9.79,0,*65
1488171879.39,58098,9.06,73220.0,-5.51,-9.97,-9.75,0,*51
1488171880.59,58099,9.06,73228.5,-5.51,-10.05,-9.75,0,*63
1488171881.78,58100,9.06,73222.8,-5.51,-9.97,-9.67,0,*52
1488171883.0,58101,9.06,73224.5,-5.51,-9.61,-9.27,0,*5E
1488171884.22,58102,9.06,73224.5,-5.51,-9.49,-9.23,0,*53
1488171885.45,58103,9.06,73224.5,-5.51,-9.37,-8.97,0,*55
1488171886.66,58104,9.06,73228.5,-5.51,-9.27,-8.81,0,*54
1488171887.91,58105,9.06,73236.5,-5.51,-9.15,-8.81,0,*54
1488171889.13,58106,9.06,73242.8,-5.51,-9.23,-8.81,0,*52
1488171890.35,58107,9.06,73234.0,-5.49,-9.27,-8.97,0,*59
1488171891.6,58108,9.06,73216.0,-5.51,-9.49,-9.11,0,*58
1488171892.84,58109,9.06,73226.0,-5.51,-9.53,-9.15,0,*56
1488171894.11,58110,9.06,73216.8,-5.49,-9.49,-9.15,0,*5C
1488171895.35,58111,9.13,73222.5,-5.49,-9.53,-9.23,0,*53
1488171896.59,58112,9.06,73228.0,-5.49,-9.61,-9.23,0,*51
1488171897.85,58113,9.06,73226.5,-5.49,-9.53,-9.15,0,*54
1488171899.1,58114,9.06,73214.3,-5.45,-9.45,-9.19,0,*54
1488171900.35,58115,9.06,73178.3,-5.45,-9.49,-9.19,0,*59
1488171901.62,58116,9.06,73168.0,-5.45,-9.57,-9.37,0,*59
1488171902.87,58117,9.06,73172.8,-5.49,-9.79,-9.49,0,*51
1488171904.13,58118,9.13,73176.3,-5.49,-9.83,-9.61,0,*51
1488171905.37,58119,9.06,73202.8,-5.45,-9.89,-9.57,0,*53
1488171906.61,58120,9.06,73206.3,-5.45,-9.93,-9.61,0,*57
1488171907.83,58121,9.06,73206.0,-5.49,-9.97,-9.75,0,*5B
1488171909.05,58122,9.06,73218.5,-5.49,-9.97,-9.79,0,*54
1488171910.27,58123,9.06,73222.3,-5.49,-10.05,-9.79,0,*66
1488171911.49,58124,9.06,73216.3,-5.49,-9.97,-9.79,0,*52
1488171912.75,58125,9.13,73218.0,-5.49,-10.19,-9.83,0,*68
1488171913.98,58126,9.06,73214.3,-5.45,-10.15,-9.89,0,*61
1488171915.21,58127,9.06,73216.0,-5.49,-10.23,-9.93,0,*62
1488171916.43,58128,9.06,73218.3,-5.49,-10.09,-9.93,0,*65
1488171917.68,58129,9.13,73218.8,-5.49,-10.09,-9.83,0,*65
1488171918.91,58130,9.06,73218.3,-5.51,-10.19,-9.83,0,*65
1488171920.12,58131,9.13,73226.0,-5.51,-10.19,-9.93,0,*65
1488171921.32,58132,9.06,73224.0,-5.51,-10.23,-9.97,0,*6B
1488171922.54,58133,9.06,73226.3,-5.51,-10.09,-9.83,0,*67
1488171923.74,58134,9.13,73218.8,-5.51,-9.97,-9.67,0,*55
1488171925.01,58135,9.06,73196.3,-5.53,-9.83,-9.53,0,*54
1488171926.23,58136,9.06,73192.3,-5.51,-9.75,-9.49,0,*57
1488171927.47,58137,9.06,73188.0,-5.51,-9.83,-9.61,0,*55
1488171928.67,58138,9.06,73188.0,-5.51,-9.93,-9.75,0,*5E
1488171929.86,58139,9.06,73192.8,-5.51,-10.09,-9.75,0,*64
1488171931.1,58140,9.06,73204.3,-5.51,-10.19,-9.83,0,*62
1488171932.3,58141,9.06,73214.3,-5.51,-10.19,-9.97,0,*66
1488171933.55,58142,9.06,73214.5,-5.53,-10.35,-10.01,0,*5E
1488171934.76,58143,9.06,73220.5,-5.51,-10.31,-9.93,0,*6A
1488171935.99,58144,9.06,73220.3,-5.53,-10.23,-9.97,0,*68
1488171937.24,58145,9.06,73224.0,-5.53,-10.15,-9.83,0,*69
1488171938.49,58146,9.06,73224.5,-5.53,-10.09,-9.83,0,*67
1488171939.73,58147,9.06,73224.5,-5.53,-10.15,-9.89,0,*61
1488171940.95,58148,9.06,73224.0,-5.53,-10.23,-9.97,0,*64
1488171942.2,58149,9.06,73228.3,-5.53,-10.27,-10.01,0,*56
1488171943.44,58150,9.06,73228.3,-5.53,-10.27,-10.01,0,*5E
1488171944.69,58151,9.06,73228.0,-5.53,-10.35,-10.01,0,*5C
1488171945.91,58152,9.06,73226.3,-5.53,-10.23,-9.89,0,*60
1488171947.11,58153,9.06,73226.5,-5.55,-10.27,-9.97,0,*6C
1488171948.31,58154,9.06,73228.8,-5.55,-10.23,-9.89,0,*60
1488171949.52,58155,9.06,73234.8,-5.55,-10.15,-9.89,0,*64
1488171950.75,58156,9.06,73234.0,-5.55,-10.15,-9.83,0,*6D
1488171951.98,58157,9.06,73228.3,-5.55,-10.15,-9.83,0,*6C
1488171953.2,58158,9.06,73226.0,-5.57,-9.93,-9.71,0,*5A
1488171954.41,58159,9.06,73228.8,-5.55,-9.67,-9.41,0,*51
1488171955.62,58160,9.06,73232.8,-5.55,-9.57,-9.19,0,*55
1488171956.83,58161,9.06,73230.8,-5.55,-9.57,-9.19,0,*54
1488171958.07,58162,9.06,73234.3,-5.53,-9.57,-9.19,0,*51
1488171959.32,58163,9.06,73226.0,-5.51,-9.41,-9.11,0,*5D
1488171960.58,58164,9.06,73222.8,-5.53,-9.41,-9.05,0,*5D
1488171961.85,58165,9.06,73214.3,-5.53,-9.41,-9.15,0,*5D
1488171963.09,58166,9.06,73208.5,-5.53,-9.57,-9.19,0,*55
1488171964.31,58167,9.06,73218.0,-5.51,-9.53,-9.31,0,*58
1488171965.55,58168,9.06,73214.5,-5.53,-9.57,-9.27,0,*56
1488171966.79,58169,9.06,73212.5,-5.51,-9.49,-9.15,0,*5B
1488171968.02,58170,9.06,73192.5,-5.51,-9.41,-9.01,0,*5E
1488171969.29,58171,9.06,73202.8,-5.53,-9.45,-9.15,0,*5C
1488171970.54,58172,9.06,73204.3,-5.51,-9.49,-9.15,0,*51
1488171971.78,58173,9.06,73196.3,-5.51,-9.53,-9.37,0,*5B
1488171973.03,58174,9.06,73200.5,-5.51,-9.61,-9.37,0,*5D
1488171974.25,58175,9.06,73196.3,-5.51,-9.67,-9.37,0,*5A
1488171975.48,58176,9.06,73202.0,-5.51,-9.79,-9.49,0,*5F
1488171976.7,58177,9.06,73212.5,-5.51,-9.79,-9.53,0,*55
1488171977.93,58178,9.06,73212.0,-5.51,-9.75,-9.61,0,*57
1488171979.15,58179,9.06,73208.5,-5.51,-9.75,-9.61,0,*56
1488171980.37,58180,9.13,73218.8,-5.51,-9.93,-9.61,0,*58
1488171981.56,58181,9.06,73210.8,-5.51,-10.05,-9.75,0,*6B
1488171982.77,58182,9.06,73214.8,-5.51,-10.19,-9.79,0,*69
1488171983.97,58183,9.06,73218.5,-5.51,-10.09,-9.79,0,*69
1488171985.2,58184,9.06,73220.8,-5.53,-10.01,-9.79,0,*64
1488171986.39,58185,9.06,73212.3,-5.51,-9.93,-9.67,0,*5B
1488171987.61,58186,9.06,73214.3,-5.53,-9.89,-9.67,0,*51
1488171988.84,58187,9.06,73208.3,-5.51,-9.75,-9.53,0,*56
1488171990.06,58188,9.06,73212.0,-5.51,-9.75,-9.41,0,*5A
1488171991.3,58189,9.06,73212.3,-5.51,-9.83,-9.61,0,*50
1488171992.49,58190,9.06,73208.0,-5.51,-9.93,-9.67,0,*5F
1488171993.72,58191,9.06,73172.5,-5.53,-10.09,-9.79,0,*68
1488171994.94,58192,9.06,73182.3,-5.51,-10.09,-9.83,0,*6C
1488171996.14,58193,9.06,73190.5,-5.51,-10.05,-9.79,0,*64
1488171997.33,58194,9.06,73206.8,-5.51,-9.97,-9.79,0,*50
1488171998.53,58195,9.06,73210.3,-5.51,-10.05,-9.79,0,*62
1488171999.76,58196,9.06,73216.8,-5.53,-10.01,-9.79,0,*67
1488172000.99,58197,9.06,73218.5,-5.51,-10.19,-9.83,0,*68
1488172002.19,58198,9.06,73234.5,-5.51,-10.23,-9.97,0,*6B
1488172003.42,58199,9.06,73238.3,-5.53,-10.15,-9.89,0,*62
1488172004.64,58200,9.06,73234.8,-5.51,-10.09,-9.83,0,*64
1488172005.88,58201,9.06,73224.5,-5.53,-9.89,-9.57,0,*5E
1488172007.11,58202,9.06,73226.0,-5.51,-9.75,-9.53,0,*58
1488172008.36,58203,9.06,73222.8,-5.53,-9.71,-9.45,0,*58
1488172009.62,58204,9.06,73218.3,-5.53,-9.71,-9.53,0,*58
1488172010.85,58205,9.06,73214.3,-5.51,-9.79,-9.53,0,*53
1488172012.07,58206,9.06,73210.3,-5.51,-9.93,-9.61,0,*55
1488172013.29,58207,9.06,73214.3,-5.53,-10.09,-9.79,0,*64
1488172014.52,58208,9.06,73216.5,-5.53,-10.23,-9.89,0,*6C
1488172015.75,58209,9.06,73224.5,-5.53,-10.23,-9.97,0,*62
1488172016.95,58210,9.06,73224.3,-5.51,-10.31,-9.97,0,*6B
1488172018.22,58211,9.06,73226.3,-5.53,-10.41,-10.15,0,*5D
1488172019.43,58212,9.06,73232.5,-5.51,-10.35,-10.09,0,*52
1488172020.67,58213,9.13,73234.8,-5.53,-10.49,-10.15,0,*57
1488172021.94,58214,9.06,73230.5,-5.53,-10.41,-10.09,0,*55
1488172023.18,58215,9.06,73228.8,-5.55,-10.41,-10.01,0,*5A
1488172024.39,58216,9.06,73228.8,-5.55,-10.35,-10.09,0,*52
1488172025.6,58217,9.06,73230.3,-5.55,-10.35,-10.15,0,*5E
1488172026.84,58218,9.06,73228.0,-5.55,-10.41,-10.27,0,*53
1488172028.05,58219,9.06,73226.8,-5.55,-10.49,-10.23,0,*5E
1488172029.28,58220,9.06,73228.0,-5.57,-10.57,-10.45,0,*59
1488172030.52,58221,9.06,73232.5,-5.57,-10.57,-10.45,0,*58
1488172031.73,58222,9.06,73232.8,-5.55,-10.57,-10.45,0,*59
1488172032.96,58223,9.06,73234.3,-5.57,-10.57,-10.31,0,*59
1488172034.2,58224,9.06,73234.5,-5.61,-10.35,-10.09,0,*54
1488172035.44,58225,9.06,73234.0,-5.61,-10.31,-9.93,0,*6A
1488172036.66,58226,9.06,73232.8,-5.57,-10.05,-9.75,0,*63
1488172037.87,58227,9.06,73226.8,-5.57,-9.89,-9.71,0,*5A
1488172039.09,58228,9.06,73220.8,-5.57,-9.89,-9.71,0,*55
1488172040.31,58229,9.06,73222.0,-5.55,-9.83,-9.67,0,*5B
1488172041.52,58230,9.06,73220.0,-5.57,-9.89,-9.71,0,*5C
1488172042.75,58231,9.06,73212.8,-5.57,-10.01,-9.71,0,*65
1488172043.94,58232,9.06,73180.8,-5.55,-9.89,-9.71,0,*5C
1488172045.17,58233,9.06,73192.8,-5.57,-10.15,-9.75,0,*66
1488172046.4,58234,9.06,73210.5,-5.61,-10.23,-9.97,0,*6D
1488172047.64,58235,9.06,73204.3,-5.57,-10.31,-10.01,0,*5D
1488172048.87,58236,9.06,73202.5,-5.57,-10.27,-10.05,0,*5D
1488172050.11,58237,9.06,73208.0,-5.61,-10.35,-10.09,0,*56
1488172051.35,58238,9.06,73212.5,-5.61,-10.35,-10.09,0,*59
1488172052.59,58239,9.06,73218.8,-5.61,-10.35,-10.09,0,*58
1488172053.83,58240,9.06,73220.5,-5.61,-10.35,-10.05,0,*5A
1488172055.07,58241,9.06,73230.8,-5.61,-10.35,-10.05,0,*5B
1488172056.31,58242,9.06,73232.8,-5.61,-10.35,-10.05,0,*58
1488172057.55,58243,9.06,73232.3,-5.61,-10.35,-10.05,0,*59
1488172058.79,58244,9.06,73232.3,-5.61,-10.35,-10.05,0,*5E
1488172060.03,58245,9.06,73232.8,-5.61,-10.45,-10.23,0,*5C
1488172061.27,58246,9.06,73232.8,-5.61,-10.45,-10.19,0,*56
1488172062.5,58247,9.06,73232.5,-5.61,-10.49,-10.23,0,*52
1488172063.71,58248,9.06,73224.5,-5.63,-10.35,-9.97,0,*63
1488172064.92,58249,9.06,73216.8,-5.63,-10.23,-9.93,0,*61
1488172066.11,58250,9.06,73220.3,-5.63,-10.05,-9.79,0,*69
1488172067.31,58251,9.06,73216.5,-5.63,-9.97,-9.67,0,*54
1488172068.51,58252,9.06,73226.8,-5.63,-9.79,-9.67,0,*57
1488172069.76,58253,9.06,73212.3,-5.61,-9.75,-9.41,0,*5C
1488172071.01,58254,9.06,73212.3,-5.61,-9.67,-9.41,0,*58
1488172072.26,58255,9.06,73212.8,-5.61,-9.67,-9.37,0,*58
1488172073.51,58256,9.06,73212.5,-5.61,-9.79,-9.49,0,*5D
1488172074.77,58257,9.06,73224.0,-5.61,-9.79,-9.53,0,*57
1488172076.02,58258,9.06,73234.8,-5.61,-9.79,-9.49,0,*53
1488172077.27,58259,9.06,73224.3,-5.61,-9.67,-9.37,0,*54
1488172078.51,58260,9.06,73230.3,-5.61,-9.53,-9.23,0,*5C
1488172079.76,58261,9.06,73222.0,-5.61,-9.67,-9.41,0,*5E
1488172081.01,58262,9.06,73226.3,-5.57,-9.71,-9.45,0,*5B
1488172082.27,58263,9.06,73230.8,-5.57,-9.71,-9.37,0,*5F
1488172083.49,58264,9.06,73230.0,-5.57,-9.71,-9.31,0,*5E
1488172084.68,58265,9.06,73226.8,-5.55,-9.67,-9.27,0,*5D
1488172085.92,58266,9.06,73224.3,-5.57,-9.61,-9.31,0,*5D
1488172087.13,58267,9.06,73216.0,-5.55,-9.61,-9.23,0,*5D
1488172088.36,58268,9.06,73218.5,-5.57,-9.57,-9.31,0,*56
1488172089.57,58269,9.06,73218.5,-5.55,-9.57,-9.27,0,*52
1488172090.79,58270,9.06,73212.3,-5.55,-9.57,-9.27,0,*5A
1488172092.02,58271,9.06,73210.0,-5.57,-9.57,-9.23,0,*5D
1488172093.26,58272,9.06,73210.5,-5.55,-9.57,-9.15,0,*59
1488172094.5,58273,9.06,73214.5,-5.57,-9.61,-9.31,0,*59
1488172095.73,58274,9.06,73214.5,-5.55,-9.57,-9.41,0,*5E
1488172096.97,58275,9.06,73214.0,-5.55,-9.83,-9.57,0,*51
1488172098.16,58276,9.06,73202.5,-5.55,-9.97,-9.71,0,*53
1488172099.36,58277,9.06,73210.3,-5.55,-10.01,-9.79,0,*6D
1488172100.58,58278,9.06,73208.3,-5.53,-10.09,-9.79,0,*6C
1488172101.81,58279,9.06,73212.3,-5.55,-10.15,-9.83,0,*63
1488172103.01,58280,9.06,73214.8,-5.55,-10.27,-9.97,0,*61
1488172104.23,58281,9.06,73222.3,-5.55,-10.09,-9.83,0,*69
1488172105.44,58282,9.06,73208.0,-5.55,-9.89,-9.57,0,*53
1488172106.63,58283,9.06,73218.0,-5.55,-9.67,-9.31,0,*52
1488172107.85,58284,9.06,73206.8,-5.55,-9.45,-9.05,0,*52
1488172109.05,58285,9.06,73196.5,-5.55,-9.31,-9.05,0,*50
1488172110.28,58286,9.06,73196.5,-5.53,-9.27,-9.01,0,*56
1488172111.5,58287,9.06,73198.3,-5.53,-9.31,-8.75,0,*52